[Iaude] MPEC E21: 2020 WC3 [a=1.40,e=0.19,i=16.8,H=22.46]

mpec at marsden.cfa.harvard.edu mpec at marsden.cfa.harvard.edu
Tue Mar 1 09:11:47 EST 2022


M.P.E.C. 2022-E21                                 Issued 2022 March 1, 14:10 UT

     The Minor Planet Electronic Circulars contain information on unusual
         minor planets and routine data on comets.  They are published
    on behalf of Division F of the International Astronomical Union by the
          Minor Planet Center, Smithsonian Astrophysical Observatory,
                          Cambridge, MA 02138, U.S.A.

             Prepared using the Tamkin Foundation Computer Network

                              MPC at CFA.HARVARD.EDU
            URL https://www.minorplanetcenter.net/    ISSN 1523-6714

                                    2020 WC3                                    


                           Revision to MPEC 2020-W117                           

Additional Observations:
     K20W03C &C2015 12 28.08590001 26 42.62 +03 32 31.2                VEE021W84
     K20W03C &C2015 12 28.13995301 26 54.12 +03 30 56.9                VEE021W84
     K20W03C  C2016 01 01.23576401 41 52.316+01 39 03.09         22.27GVEE021F51
     K20W03C  C2016 01 01.25091101 41 55.505+01 38 39.87         22.90GVEE021F51
     K20W03C  C2016 01 01.25820801 41 57.014+01 38 28.68         21.84GVEE021F51
     K20W03C  C2016 01 01.26208401 41 57.829+01 38 22.62         21.81GVEE021F51

Observer details:
F51 Pan-STARRS 1, Haleakala.  Observers J. Bulger, K. Chambers, T. Lowe, A.
    Schultz, I. Smith.  Measurers S. Chastel, M. Huber, Y. Ramanjooloo, R.
    Wainscoat, R. Weryk.  1.8-m Ritchey-Chretien + CCD.
W84 Cerro Tololo-DECam.  Observer .  Measurer S. Deen.  4.0-m reflector + CCD.

First and last observations above in comparison with prediction:
Residuals in seconds of arc (or two decimals in degrees), reference and Delta-T
151228 W84 0.03- 0.01-    160101 F51 0.03- 0.01-    E2021-B25   +0.02 days

Orbital elements:
2020 WC3                                                 Earth MOID = 0.1475 AU
Epoch 2022 Jan. 21.0 TT = JDT 2459600.5                 Veres                   
M 233.54512              (2000.0)            P               Q                  
n   0.59494044     Peri.  193.09810     +0.07799116     -0.95776551             
a   1.4000828      Node   252.96176     +0.93879967     +0.16398521             
e   0.1939025      Incl.   16.82665     +0.33551834     -0.23620771             
P   1.66           H   22.46          G   0.15           U   0                  
Residuals in seconds of arc
151228 W84  0.1-  0.1+    201122 I52  0.0   0.1+    201214 G96  0.0   0.1-
151228 W84  0.4-  0.2-    201122 U55  0.4-  0.7+    201214 I52  0.3-  0.1+
160101 F51  0.1-  0.1-    201122 U55  0.1-  0.2+    201214 I52  0.1-  0.2-
160101 F51  0.2+  0.0     201122 U55  0.4-  0.9+    201214 I52  0.1-  0.1-
160101 F51  0.0   0.0     201122 K63  0.1+  0.2-    201214 I52  0.2+  0.1-
160101 F51  0.0   0.1-    201122 K63  0.7+  0.2-    201217 807  0.1+  0.0
201121 G96  0.0   0.1+    201122 K63  0.1-  0.0     201217 807  0.0   0.1+
201121 G96  0.0   0.3+    201123 734  0.1-  0.3-    201217 807  0.1+  0.2+
201121 G96  0.0   0.3-    201123 I52  0.5-  0.3-    201217 I52  0.1+  0.1-
201121 G96  0.0   0.2+    201123 734  0.2-  0.1-    201217 I52  0.1+  0.2+
201121 I52  0.0   0.2+    201123 I52  0.1+  0.2-    201217 I52  0.1-  0.2-
201121 I52  0.1-  0.0     201123 I52  0.3-  0.1+    201217 I52  0.0   0.2-
201121 I52  0.0   0.0     201123 734  0.1-  0.0     201219 I52  0.5-  0.1+
201121 I52  0.0   0.0     201123 734  0.1-  0.6-    201219 I52  0.2+  0.1-
201121 I52  0.1-  0.2+    201126 I52  0.1-  0.2+    201219 I52  0.2-  0.4+
201121 I52  0.1-  0.1+    201126 I52  0.1+  0.1-    201219 I52 (1.2-  2.2-)
201121 033  0.0   0.3+    201126 I52  0.2+  0.1+    201221 G96  0.0   0.0
201121 033  0.3+  0.8-    201126 I52  0.0   0.1-    201221 G96  0.0   0.0
201121 033  0.4+  0.0     201127 I52  0.1+  0.1-    201221 G96  0.1+  0.0
201121 033  0.1-  0.1-    201127 I52  0.0   0.2+    201221 G96  0.3+  0.1-
201121 587 (0.9+  0.5-)   201202 I52  0.2-  0.5+    201222 691  0.2-  0.1+
201121 587  0.4+  0.3-    201202 I52  0.1+  0.1-    201222 691  0.7-  0.7-
201121 587  0.0   0.3-    201203 I52  0.1+  0.2+    210102 I52  0.3+  0.2-
201121 B49  0.9-  0.2-    201203 I52  0.2+  0.4-    210102 I52  0.2+  0.1-
201121 L01  0.2+  0.1+    201203 I52  0.2+  0.3-    210102 I52  0.2-  0.2-
201121 B49  0.3-  0.6-    201203 I52  0.3-  0.2+    210103 I52  0.1+  0.2+
201121 L01  0.1-  0.3+    201204 G96  0.1+  0.1-    210103 I52  1.2-  0.5+
201121 204  0.0   0.1-    201204 G96  0.1+  0.1+    210103 I52  0.4-  1.3+
201121 L01  0.1-  0.1-    201204 G96  0.0   0.1+    210104 F51  0.0   0.0
201121 L01  0.4+  0.2+    201204 G96  0.2+  0.0     210104 F51  0.1+  0.1+
201121 L01  0.4+  0.2-    201204 I52  0.2-  0.1+    210104 F51  0.1+  0.0
201121 204  0.0   0.0     201204 I52  0.2-  0.4+    210115 807  0.0   0.0
201121 204  0.1+  0.1-    201204 I52  0.3+  0.0     210115 807  0.1-  0.0
201121 246  0.5+  0.3+    201205 I52  0.2-  0.0     210115 807  0.1+  0.1-
201121 246  0.5+  0.1-    201205 I52  0.0   0.2-    210115 474  0.3-  0.2+
201121 246  0.1+  0.2+    201205 I52  0.0   0.1+    210115 474  0.3-  0.2-
201121 246  0.9+  0.0     201205 I52  0.0   0.5-    210115 474  0.1+  0.2-
201121 246  0.4-  0.2-    201206 I52  0.3+  0.0     210116 807  0.3-  0.0
201121 246  0.6+  0.1-    201206 I52  0.1+  0.4-    210116 807  0.2-  0.1+
201121 246  0.6-  0.4-    201206 I52  0.0   0.1-    210116 807  0.1+  0.1+
201121 246  0.1+  0.3+    201206 I52  0.0   0.4+    210116 F51 (0.1-  0.4-)
201121 K38  0.3+  0.1+    201207 I52  0.1+  0.1+    210116 F51  0.1-  0.0
201121 K38  0.1+  0.5-    201207 I52  0.1-  0.0     210116 F51  0.1-  0.0
201121 K38  0.2-  0.3+    201207 I52  0.1+  0.1+    210203 807  0.1+  0.0
201122 Z84  0.0   0.2+    201207 I52  0.2-  0.1-    210203 807  0.0   0.1-
201122 Z84  0.1+  0.2+    201209 V00  0.0   0.3+    210203 807  0.1-  0.2-
201122 Z84  0.1+  0.4+    201209 V00  0.1+  0.1+    210204 807  0.1+  0.2-
201122 W34  0.3-  0.6+    201209 V00  0.0   0.0     210204 807  0.5+  0.2+
201122 W34  0.3-  0.1+    201209 V00  0.1+  0.1+    210204 807  0.0   0.0
201122 W34  0.9-  0.6+    201214 G96  0.1-  0.3-    210205 807  0.2-  0.4+
201122 I52  0.3-  0.3-    201214 G96  0.1-  0.1-    210205 807  0.0   0.1-
201122 I52  0.3+  0.1+    201214 G96  0.1+  0.3-    210205 807  0.1-  0.1-

Ephemeris:
2020 WC3                 a,e,i = 1.40, 0.19, 17                  q = 1.1286
Date    TT    R. A. (2000) Decl.     Delta      r    Elong.  Phase     V
2022 01 30    20 33 22.0 -10 01 41   2.5403  1.5734     8.6     5.4    25.9
...
2022 02 14    21 12 38.3 -06 35 21   2.4996  1.5425    11.1     7.1    25.9
...
2022 02 22    21 33 38.3 -04 33 39   2.4729  1.5246    12.9     8.3    25.9
...
2022 02 28    21 49 27.4 -02 57 37   2.4510  1.5105    14.2     9.3    25.9
2022 03 01    21 52 06.0 -02 41 15   2.4472  1.5081    14.4     9.4    25.9
2022 03 02    21 54 44.8 -02 24 46   2.4433  1.5057    14.7     9.6    25.9
...
2022 03 08    22 10 40.8 -00 43 54   2.4194  1.4910    16.0    10.6    25.9
...
2022 03 16    22 32 06.7 +01 35 19   2.3858  1.4707    17.8    11.9    25.9
...
2022 03 31    23 13 09.6 +06 07 10   2.3187  1.4306    20.9    14.4    25.9

A. U. Tomatic                (C) Copyright 2022 MPC           M.P.E.C. 2022-E21




More information about the Iaude mailing list